{"data":{"norad_id":63160,"intl_designator":"2025-046B","name":"QIANFAN-74","alt_names":[],"object_type":"PAYLOAD","status":"ACTIVE","operator":null,"country":"PRC","launch_date":"2025-03-11","launch_site_code":"WSC","launch_vehicle":null,"mission":null,"orbit_class":"UNKNOWN","rcs_meters":null,"size_class":null,"mass_kg":null,"dimensions":null,"purposes":[],"wikipedia_slug":null,"has_3d_model":false,"image_url":null,"decayed_at":null,"tle_current":{"epoch":"2026-05-25T04:40:44.316768Z","epoch_age_seconds":68632,"freshness":"FRESH","line1":"1 63160U 25046B   26145.19495737  .00000095  00000+0  12809-3 0  9992","line2":"2 63160  88.9690 302.9667 0001877 100.7131 259.4232 13.51004183 69544","mean_motion":13.51004183,"eccentricity":0.0001877,"inclination_deg":88.969,"raan_deg":302.9667,"arg_perigee_deg":100.7131,"mean_anomaly_deg":259.4232,"bstar":0.00012809,"rev_number":6954,"period_min":106.58738278681,"perigee_km":1067.1684679473,"apogee_km":1069.9639603339,"semimajor_km":7446.7032141406,"source":"CELESTRAK","updated_at":"2026-05-25T13:38:03.537747Z"}}}